星链-2184 (STARLINK-2184 )

导读 | 星芒AI

STARLINK-2184 是 SpaceX Starlink 卫星互联网项目中的一颗低轨道通信卫星。它属于第二代 Starlink 卫星,旨在为全球用户提供高速、低延迟的互联网服务。该卫星采用先进推进系统和激光通信技术,提高网络效率与稳定性。作为星座的一部分,STARLINK-2184 与其他卫星协同工作,扩大覆盖范围,支持偏远地区网络接入。其发射和运行有助于推动全球宽带普及,促进数字经济发展。

基本信息
目录编号:
47766
目录名称:
STARLINK-2184
国际标识:
2021-017AW
轨道中心:
EARTH
卫星名称:
星链-2184
卫星全名:
星链-2184 (STARLINK-2184 )
卫星状态:
已陨落 最后检测时间 2025-07-23
发射日期:
2021-03-04 UTC
国别 :
美国 (US)
星等 :
--
轨道信息
数据来源 国际轨道数据
星历时间: 2025-07-23T13:31:51+0800
轨道信息已过期146天
半长轴: 6543.501km
偏心率: 0.0009798
轨道倾角: 53.033°
近地点辐角 239.000°
升交点赤经 135.966°
平近点角 277.224°
近地点: 158.954km
远地点: 171.778km
周期: 87.796分钟
每日圈数: 16.401652
详细信息
固有亮度:
5
最大亮度:
2.5
卫星平台:
Starlink V1.0
覆盖范围:
全球
运营商:
太空探索技术公司
运营商所在国:
美国
制造商(研发单位):
太空探索技术公司
制造商所在国:
美国
使用方式:
暂无
卫星简介
星链(Starlink)计划是由太空探索技术公司(SpaceX)提出的一个巨型低轨卫星互联网星座项目,计划在2019年至2024年间在太空搭建由约1.2万颗卫星组成的“星链”网络,其中1584颗将部署在地球上空550千米处的近地轨道,并从2020年开始工作。该卫星仍在工作。